HUN10C LHBP-EGPH

Flight info

Callsign HUN10C
Flight time 2h 36m
Altitude 36000
Route BADOV MAVOR KATQA ELMEK VEXIL KATCE WRB TENLI BERGI L602 AMGOD GODOS M981 NATEB Y96 AGPED
Aircraft B738/M-SDE2E3FGHIJ2J5RWXY/L

Departure

Time 2026-05-04 06:25
Airport Budapest Liszt Ferenc International Airport (LHBP)

Arrival

Time 2026-05-04 09:02
Airport Edinburgh Airport (EGPH)
Time Latitude Longitude Altitude Speed Heading
2026-05-04 06:00 47.43452 19.26248 475 ft 0 kts 221°
2026-05-04 06:17 47.43451 19.26247 475 ft 0 kts 221°
2026-05-04 06:17 47.43459 19.26257 475 ft 2 kts 218°
2026-05-04 06:17 47.43470 19.26271 475 ft 2 kts 223°
2026-05-04 06:17 47.43481 19.26286 475 ft 2 kts 221°
2026-05-04 06:18 47.43491 19.26302 475 ft 2 kts 256°
2026-05-04 06:18 47.43489 19.26323 475 ft 2 kts 300°
2026-05-04 06:18 47.43486 19.26331 475 ft 1 kts 319°
2026-05-04 06:20 47.43482 19.26335 475 ft 0 kts 313°
2026-05-04 06:20 47.43483 19.26335 475 ft 0 kts 313°
2026-05-04 06:21 47.43823 19.26032 479 ft 17 kts 42°
2026-05-04 06:21 47.43908 19.26147 480 ft 15 kts 43°
2026-05-04 06:22 47.43986 19.26255 480 ft 14 kts 43°
2026-05-04 06:22 47.44053 19.26366 480 ft 15 kts 65°
2026-05-04 06:25 47.41220 19.48369 7232 ft 282 kts 42°
2026-05-04 06:25 47.42676 19.50272 8098 ft 283 kts 43°
2026-05-04 06:26 47.44141 19.52207 8914 ft 285 kts 43°
2026-05-04 06:26 47.45595 19.54142 9730 ft 286 kts 43°
2026-05-04 06:26 47.47077 19.56121 10441 ft 292 kts 43°
2026-05-04 06:26 47.48613 19.58176 10893 ft 307 kts 43°
2026-05-04 06:27 47.56410 19.65252 12836 ft 359 kts
2026-05-04 06:28 47.58912 19.65315 13555 ft 364 kts 357°
2026-05-04 06:28 47.61416 19.64735 14259 ft 370 kts 346°
2026-05-04 06:28 47.63775 19.63216 14987 ft 374 kts 329°
2026-05-04 06:28 47.65791 19.60787 15688 ft 379 kts 317°
2026-05-04 06:29 47.67619 19.57960 16365 ft 383 kts 314°
2026-05-04 06:29 47.69405 19.55056 17047 ft 386 kts 314°
2026-05-04 06:29 47.71197 19.52106 17712 ft 389 kts 314°
2026-05-04 06:29 47.73017 19.49114 18363 ft 392 kts 314°
2026-05-04 06:30 47.74834 19.46141 19012 ft 395 kts 314°
2026-05-04 06:30 47.76677 19.43140 19660 ft 397 kts 314°
2026-05-04 06:30 47.78545 19.40111 20273 ft 400 kts 314°
2026-05-04 06:30 47.80429 19.37058 20877 ft 403 kts 314°
2026-05-04 06:31 47.82316 19.34001 21485 ft 405 kts 314°
2026-05-04 06:31 47.84220 19.30913 22043 ft 408 kts 314°
2026-05-04 06:31 47.86132 19.27808 22595 ft 411 kts 313°
2026-05-04 06:31 47.88070 19.24656 23159 ft 413 kts 313°
2026-05-04 06:32 47.89997 19.21517 23680 ft 416 kts 313°
2026-05-04 06:33 47.99862 18.94843 26937 ft 441 kts 287°
2026-05-04 06:34 48.00658 18.90378 27401 ft 443 kts 287°
2026-05-04 06:34 48.01474 18.85970 27838 ft 445 kts 289°
2026-05-04 06:34 48.02586 18.81665 28253 ft 444 kts 298°
2026-05-04 06:34 48.04121 18.77745 28659 ft 444 kts 307°
2026-05-04 06:35 48.06050 18.74138 29059 ft 444 kts 313°
2026-05-04 06:36 48.21247 18.51456 32410 ft 437 kts 316°
2026-05-04 06:37 48.23346 18.48212 32851 ft 436 kts 315°
2026-05-04 06:37 48.25464 18.44910 33272 ft 435 kts 315°
2026-05-04 06:37 48.27548 18.41640 33680 ft 434 kts 315°
2026-05-04 06:37 48.29634 18.38352 34066 ft 434 kts 315°
2026-05-04 06:38 48.31682 18.35112 34431 ft 433 kts 315°
2026-05-04 06:38 48.33758 18.31819 34759 ft 433 kts 314°
2026-05-04 06:40 48.48145 18.08859 36088 ft 430 kts 313°
2026-05-04 06:40 48.50207 18.05550 36094 ft 430 kts 313°
2026-05-04 06:40 48.54288 17.98992 36089 ft 431 kts 313°
2026-05-04 06:41 48.58370 17.92415 36090 ft 430 kts 313°
2026-05-04 06:41 48.62453 17.85821 36086 ft 431 kts 313°
2026-05-04 06:42 48.66509 17.79253 36084 ft 431 kts 313°
2026-05-04 06:44 48.82830 17.52672 36074 ft 431 kts 314°
2026-05-04 06:44 48.87049 17.46245 36071 ft 432 kts 316°
2026-05-04 06:45 48.91370 17.39916 36066 ft 432 kts 316°
2026-05-04 06:45 48.95667 17.33608 36066 ft 432 kts 315°
2026-05-04 06:46 48.99915 17.27122 36063 ft 432 kts 311°
2026-05-04 06:46 49.03337 17.19726 36058 ft 431 kts 298°
2026-05-04 06:48 49.13065 16.86403 36047 ft 431 kts 293°
2026-05-04 06:50 49.22638 16.53065 36031 ft 429 kts 293°
2026-05-04 06:51 49.25023 16.44701 36031 ft 430 kts 293°
2026-05-04 06:51 49.27389 16.36372 36027 ft 430 kts 293°
2026-05-04 06:52 49.29771 16.27960 36028 ft 429 kts 292°
2026-05-04 06:52 49.32134 16.19585 36025 ft 429 kts 292°
2026-05-04 06:53 49.34494 16.11194 36025 ft 429 kts 292°
2026-05-04 06:53 49.36848 16.02791 36018 ft 429 kts 292°
2026-05-04 06:54 49.39188 15.94407 36016 ft 428 kts 292°
2026-05-04 06:54 49.41508 15.86069 36014 ft 427 kts 292°
2026-05-04 06:55 49.43842 15.77651 36011 ft 428 kts 292°
2026-05-04 06:55 49.46153 15.69286 36009 ft 428 kts 292°
2026-05-04 06:57 49.55360 15.35650 36012 ft 427 kts 292°
2026-05-04 06:58 49.57634 15.27268 36013 ft 426 kts 291°
2026-05-04 06:58 49.59920 15.18810 36014 ft 426 kts 291°
2026-05-04 06:59 49.62177 15.10432 36016 ft 426 kts 291°
2026-05-04 06:59 49.64447 15.01968 36017 ft 426 kts 291°
2026-05-04 07:01 49.73415 14.68248 36011 ft 426 kts 290°
2026-05-04 07:02 49.75651 14.59764 36012 ft 426 kts 290°
2026-05-04 07:02 49.77866 14.51329 36009 ft 425 kts 290°
2026-05-04 07:03 49.80080 14.42867 36009 ft 426 kts 290°
2026-05-04 07:03 49.82283 14.34413 36007 ft 427 kts 290°
2026-05-04 07:04 49.84489 14.25918 36005 ft 426 kts 290°
2026-05-04 07:04 49.86696 14.17391 36002 ft 427 kts 289°
2026-05-04 07:05 49.88884 14.08903 36004 ft 427 kts 290°
2026-05-04 07:05 49.91260 14.00437 36004 ft 426 kts 294°
2026-05-04 07:06 49.95509 13.88372 36005 ft 427 kts 297°
2026-05-04 07:07 49.98420 13.80389 36003 ft 427 kts 297°
2026-05-04 07:09 50.09896 13.48183 36000 ft 426 kts 296°
2026-05-04 07:09 50.12727 13.40125 36006 ft 426 kts 296°
2026-05-04 07:10 50.15569 13.32008 36005 ft 426 kts 295°
2026-05-04 07:12 50.26777 12.99746 36017 ft 423 kts 295°
2026-05-04 07:12 50.29548 12.91704 36018 ft 424 kts 295°
2026-05-04 07:13 50.32319 12.83635 36015 ft 423 kts 295°
2026-05-04 07:13 50.35103 12.75505 36014 ft 424 kts 295°
2026-05-04 07:14 50.42220 12.55335 36008 ft 427 kts 298°
2026-05-04 07:15 50.45348 12.47475 36007 ft 425 kts 298°
2026-05-04 07:15 50.48465 12.39643 36006 ft 426 kts 298°
2026-05-04 07:16 50.51566 12.31766 36004 ft 425 kts 297°
2026-05-04 07:16 50.54651 12.23854 36000 ft 425 kts 297°
2026-05-04 07:17 50.57736 12.15888 36003 ft 425 kts 297°
2026-05-04 07:17 50.60792 12.07962 36006 ft 424 kts 297°
2026-05-04 07:18 50.63841 12.00026 36007 ft 424 kts 297°
2026-05-04 07:18 50.66870 11.92116 36008 ft 424 kts 297°
2026-05-04 07:19 50.69923 11.84117 36005 ft 425 kts 297°
2026-05-04 07:19 50.72946 11.76173 35998 ft 424 kts 297°
2026-05-04 07:20 50.75959 11.68232 36000 ft 425 kts 297°
2026-05-04 07:20 50.78982 11.60238 36000 ft 425 kts 297°
2026-05-04 07:22 50.91000 11.28223 36002 ft 424 kts 296°
2026-05-04 07:23 50.93988 11.20202 36005 ft 425 kts 296°
2026-05-04 07:23 50.96992 11.12111 36000 ft 425 kts 296°
2026-05-04 07:24 50.99980 11.04040 35998 ft 424 kts 296°
2026-05-04 07:24 51.02942 10.96012 36004 ft 424 kts 296°
2026-05-04 07:26 51.14769 10.63706 35986 ft 424 kts 295°
2026-05-04 07:27 51.17706 10.55619 35989 ft 425 kts 295°
2026-05-04 07:27 51.20654 10.47477 35985 ft 425 kts 295°
2026-05-04 07:28 51.23601 10.39275 35980 ft 426 kts 294°
2026-05-04 07:28 51.26053 10.30770 35975 ft 421 kts 286°
2026-05-04 07:29 51.27979 10.22035 35977 ft 420 kts 284°
2026-05-04 07:29 51.29793 10.13231 35971 ft 419 kts 283°
2026-05-04 07:30 51.31603 10.04404 35966 ft 419 kts 284°
2026-05-04 07:30 51.33427 9.95550 35963 ft 419 kts 284°
2026-05-04 07:31 51.35242 9.86755 35975 ft 419 kts 284°
2026-05-04 07:33 51.42455 9.51527 35976 ft 418 kts 284°
2026-05-04 07:33 51.44239 9.42713 35980 ft 418 kts 284°
2026-05-04 07:34 51.46027 9.33850 35978 ft 418 kts 283°
2026-05-04 07:34 51.47792 9.25057 35982 ft 418 kts 283°
2026-05-04 07:35 51.49560 9.16208 35977 ft 417 kts 283°
2026-05-04 07:35 51.51466 9.07473 35974 ft 419 kts 287°
2026-05-04 07:36 51.53781 8.98874 35976 ft 421 kts 289°
2026-05-04 07:38 51.63250 8.64632 35972 ft 420 kts 289°
2026-05-04 07:38 51.65578 8.56007 35980 ft 420 kts 289°
2026-05-04 07:39 51.67882 8.47428 35972 ft 419 kts 289°
2026-05-04 07:39 51.70188 8.38808 35976 ft 418 kts 289°
2026-05-04 07:40 51.72476 8.30222 35976 ft 418 kts 288°
2026-05-04 07:40 51.74767 8.21594 35973 ft 418 kts 288°
2026-05-04 07:41 51.77050 8.12960 35972 ft 419 kts 288°
2026-05-04 07:41 51.79323 8.04332 35964 ft 420 kts 288°
2026-05-04 07:42 51.81593 7.95689 35968 ft 418 kts 289°
2026-05-04 07:42 51.83844 7.87084 35966 ft 418 kts 288°
2026-05-04 07:43 51.86099 7.78428 35964 ft 417 kts 288°
2026-05-04 07:43 51.88321 7.69867 35962 ft 416 kts 288°
2026-05-04 07:44 51.90561 7.61207 35966 ft 416 kts 288°
2026-05-04 07:44 51.92773 7.52613 35966 ft 416 kts 288°
2026-05-04 07:45 51.94991 7.43971 35969 ft 415 kts 288°
2026-05-04 07:45 51.97197 7.35341 35966 ft 415 kts 288°
2026-05-04 07:46 51.99407 7.26655 35965 ft 417 kts 288°
2026-05-04 07:46 52.01592 7.18045 35963 ft 414 kts 288°
2026-05-04 07:47 52.03785 7.09363 35967 ft 416 kts 287°
2026-05-04 07:49 52.12433 6.74804 35960 ft 414 kts 288°
2026-05-04 07:49 52.14582 6.66129 35953 ft 415 kts 288°
2026-05-04 07:50 52.16712 6.57500 35969 ft 414 kts 288°
2026-05-04 07:50 52.18849 6.48810 35955 ft 414 kts 288°
2026-05-04 07:51 52.20979 6.40111 35952 ft 414 kts 288°
2026-05-04 07:51 52.23113 6.31361 35957 ft 413 kts 287°
2026-05-04 07:52 52.25235 6.22704 35972 ft 414 kts 288°
2026-05-04 07:52 52.27563 6.14076 35960 ft 415 kts 290°
2026-05-04 07:54 52.37022 5.79875 35967 ft 416 kts 289°
2026-05-04 07:55 52.39347 5.71300 35959 ft 415 kts 289°
2026-05-04 07:55 52.41671 5.62683 35962 ft 414 kts 289°
2026-05-04 07:56 52.43990 5.54060 35958 ft 415 kts 289°
2026-05-04 07:56 52.46312 5.45384 35960 ft 414 kts 289°
2026-05-04 07:57 52.48616 5.36747 35954 ft 416 kts 289°
2026-05-04 07:57 52.50916 5.28090 35956 ft 416 kts 288°
2026-05-04 07:58 52.53228 5.19365 35963 ft 416 kts 288°
2026-05-04 07:58 52.55513 5.10707 35959 ft 417 kts 288°
2026-05-04 07:59 52.57809 5.01965 35952 ft 417 kts 288°
2026-05-04 07:59 52.60091 4.93245 35951 ft 418 kts 288°
2026-05-04 08:00 52.62382 4.84454 35965 ft 420 kts 289°
2026-05-04 08:02 52.71491 4.49181 35954 ft 420 kts 289°
2026-05-04 08:02 52.73753 4.40334 35955 ft 423 kts 289°
2026-05-04 08:03 52.76238 4.31551 35963 ft 425 kts 293°
2026-05-04 08:03 52.79111 4.23002 35978 ft 427 kts 295°
2026-05-04 08:04 52.82045 4.14535 35962 ft 426 kts 295°
2026-05-04 08:04 52.84967 4.06027 35964 ft 428 kts 295°
2026-05-04 08:05 52.87867 3.97479 35973 ft 428 kts 295°
2026-05-04 08:05 52.90769 3.88845 35981 ft 428 kts 295°
2026-05-04 08:06 52.93638 3.80259 35985 ft 429 kts 295°
2026-05-04 08:06 52.96701 3.71828 35973 ft 432 kts 303°
2026-05-04 08:08 53.14576 3.52467 35981 ft 446 kts 328°
2026-05-04 08:08 53.17300 3.49983 35981 ft 445 kts 328°
2026-05-04 08:10 53.33460 3.21177 35973 ft 429 kts 299°
2026-05-04 08:11 53.35035 3.16924 35983 ft 430 kts 299°
2026-05-04 08:11 53.39788 3.04236 35977 ft 430 kts 300°
2026-05-04 08:12 53.42970 2.95812 35986 ft 431 kts 300°
2026-05-04 08:12 53.46170 2.87341 35987 ft 431 kts 300°
2026-05-04 08:13 53.49371 2.78851 35986 ft 431 kts 300°
2026-05-04 08:13 53.52576 2.70326 35991 ft 432 kts 301°
2026-05-04 08:14 53.55759 2.61828 35984 ft 431 kts 301°
2026-05-04 08:16 53.68429 2.27706 35997 ft 434 kts 300°
2026-05-04 08:16 53.71610 2.19066 35996 ft 434 kts 300°
2026-05-04 08:17 53.74778 2.10432 36012 ft 435 kts 301°
2026-05-04 08:17 53.77948 2.01762 36014 ft 434 kts 301°
2026-05-04 08:19 53.90536 1.67034 36024 ft 435 kts 301°
2026-05-04 08:20 53.93667 1.58322 36027 ft 434 kts 301°
2026-05-04 08:20 53.96790 1.49597 36030 ft 436 kts 302°
2026-05-04 08:21 53.99933 1.40788 36032 ft 434 kts 302°
2026-05-04 08:21 54.03025 1.32091 36033 ft 434 kts 301°
2026-05-04 08:22 54.06146 1.23286 36036 ft 435 kts 301°
2026-05-04 08:24 54.18532 0.88009 36038 ft 436 kts 302°
2026-05-04 08:24 54.21624 0.79127 36034 ft 437 kts 302°
2026-05-04 08:25 54.24707 0.70236 36034 ft 437 kts 302°
2026-05-04 08:25 54.27793 0.61307 36027 ft 437 kts 302°
2026-05-04 08:27 54.40025 0.25578 36036 ft 437 kts 302°
2026-05-04 08:28 54.43063 0.16624 36033 ft 437 kts 302°
2026-05-04 08:28 54.46111 0.07606 36038 ft 437 kts 303°
2026-05-04 08:29 54.49128 -0.01349 36033 ft 436 kts 303°
2026-05-04 08:31 54.61171 -0.37432 36034 ft 436 kts 303°
2026-05-04 08:33 54.73069 -0.73623 36032 ft 433 kts 302°
2026-05-04 08:35 54.84795 -1.09814 36031 ft 432 kts 303°
2026-05-04 08:35 54.87705 -1.18882 35937 ft 431 kts 303°
2026-05-04 08:37 54.96406 -1.46189 32127 ft 430 kts 304°
2026-05-04 08:37 54.97837 -1.50721 31581 ft 426 kts 303°
2026-05-04 08:37 54.99244 -1.55186 31030 ft 422 kts 304°
2026-05-04 08:38 55.00644 -1.59633 30478 ft 417 kts 304°
2026-05-04 08:38 55.02010 -1.63983 29934 ft 413 kts 303°
2026-05-04 08:38 55.03377 -1.68335 29387 ft 409 kts 302°
2026-05-04 08:40 55.12945 -1.97230 25897 ft 376 kts 303°
2026-05-04 08:40 55.14247 -2.01156 24965 ft 374 kts 303°
2026-05-04 08:40 55.15534 -2.05044 24066 ft 371 kts 303°
2026-05-04 08:41 55.16803 -2.08887 23234 ft 367 kts 302°
2026-05-04 08:41 55.18070 -2.12733 22701 ft 363 kts 302°
2026-05-04 08:41 55.19315 -2.16519 22186 ft 360 kts 302°
2026-05-04 08:41 55.20552 -2.20290 21687 ft 357 kts 302°
2026-05-04 08:42 55.21769 -2.24003 21198 ft 354 kts 302°
2026-05-04 08:42 55.22989 -2.27735 20709 ft 351 kts 302°
2026-05-04 08:42 55.24188 -2.31409 20222 ft 348 kts 301°
2026-05-04 08:42 55.25364 -2.35019 19738 ft 345 kts 301°
2026-05-04 08:43 55.26551 -2.38671 19241 ft 342 kts 301°
2026-05-04 08:43 55.27710 -2.42236 18773 ft 338 kts 301°
2026-05-04 08:43 55.28869 -2.45806 18310 ft 335 kts 301°
2026-05-04 08:43 55.29999 -2.49294 17845 ft 332 kts 301°
2026-05-04 08:44 55.31137 -2.52811 17370 ft 328 kts 301°
2026-05-04 08:44 55.32243 -2.56232 16909 ft 325 kts 301°
2026-05-04 08:46 55.39870 -2.79985 13699 ft 312 kts 300°
2026-05-04 08:46 55.40929 -2.83304 13242 ft 309 kts 300°
2026-05-04 08:46 55.41959 -2.86539 12799 ft 306 kts 300°
2026-05-04 08:46 55.42988 -2.89777 12356 ft 303 kts 300°
2026-05-04 08:47 55.44008 -2.92988 11943 ft 300 kts 300°
2026-05-04 08:47 55.45021 -2.96143 11704 ft 290 kts 302°
2026-05-04 08:47 55.46184 -2.98905 11513 ft 280 kts 315°
2026-05-04 08:47 55.47791 -3.00754 11180 ft 277 kts 338°
2026-05-04 08:48 55.49622 -3.01767 10812 ft 274 kts 343°
2026-05-04 08:48 55.51429 -3.02657 10456 ft 272 kts 342°
2026-05-04 08:48 55.53243 -3.03593 10111 ft 269 kts 342°
2026-05-04 08:48 55.54994 -3.04536 9924 ft 260 kts 341°
2026-05-04 08:49 55.56701 -3.05477 9620 ft 258 kts 341°
2026-05-04 08:50 55.66909 -3.11162 7678 ft 254 kts 340°
2026-05-04 08:50 55.68577 -3.12094 7372 ft 251 kts 340°
2026-05-04 08:51 55.70216 -3.13010 7079 ft 248 kts 340°
2026-05-04 08:51 55.71895 -3.13745 6990 ft 246 kts 351°
2026-05-04 08:51 55.73597 -3.13679 6809 ft 244 kts
2026-05-04 08:51 55.75236 -3.13167 6524 ft 240 kts
2026-05-04 08:52 55.76850 -3.12641 6243 ft 230 kts
2026-05-04 08:52 55.78387 -3.12205 5991 ft 220 kts
2026-05-04 08:52 55.79861 -3.11824 5744 ft 211 kts
2026-05-04 08:52 55.81275 -3.11470 5509 ft 202 kts
2026-05-04 08:53 55.82645 -3.11129 5274 ft 193 kts
2026-05-04 08:54 55.91454 -3.08917 3873 ft 177 kts
2026-05-04 08:55 55.92667 -3.08612 3824 ft 179 kts
2026-05-04 08:55 55.93908 -3.08299 3769 ft 179 kts
2026-05-04 08:55 55.95137 -3.07989 3714 ft 179 kts
2026-05-04 08:55 55.96361 -3.07678 3660 ft 177 kts
2026-05-04 08:57 56.03459 -3.09777 3213 ft 153 kts 285°
2026-05-04 09:01 55.96855 -3.31765 666 ft 136 kts 240°
2026-05-04 09:01 55.96369 -3.33201 487 ft 136 kts 240°
2026-05-04 09:01 55.95880 -3.34653 300 ft 136 kts 239°
2026-05-04 09:01 55.95387 -3.36096 130 ft 136 kts 240°
2026-05-04 09:02 55.94953 -3.37392 106 ft 92 kts 239°
2026-05-04 09:02 55.94773 -3.37920 107 ft 27 kts 239°
2026-05-04 09:02 55.94672 -3.38024 107 ft 16 kts 157°
2026-05-04 09:02 55.94599 -3.37895 107 ft 15 kts 83°
2026-05-04 09:03 55.94646 -3.37720 106 ft 16 kts 59°
2026-05-04 09:03 55.94729 -3.37478 106 ft 26 kts 60°
2026-05-04 09:03 55.94821 -3.37201 106 ft 26 kts 59°
2026-05-04 09:03 55.94904 -3.36959 106 ft 17 kts 59°
2026-05-04 09:04 55.94881 -3.36794 106 ft 15 kts 157°
2026-05-04 09:04 55.94808 -3.36738 106 ft 5 kts 104°
2026-05-04 09:04 55.94803 -3.36658 106 ft 6 kts 92°
2026-05-04 09:04 55.94803 -3.36632 106 ft 0 kts 91°